| time (UTC) | temp F | wind direction | speed MPH | gust MPH | rain 1hr in | rain 24hr in | rain mn in | humidity % | barometer mb |
| 20260504050426 | 45 | 239 | 0.0 | 0.0 | 0.00 | 0.00 | 0.00 | 73 | 1016.8 |
| 20260504045919 | 45 | 240 | 0.0 | 0.0 | 0.00 | 0.00 | 0.00 | 74 | 1016.9 |
| 20260504045414 | 45 | 256 | 0.0 | 0.0 | 0.00 | 0.00 | 0.00 | 74 | 1017.0 |
| 20260504044911 | 45 | 246 | 0.0 | 0.0 | 0.00 | 0.00 | 0.00 | 74 | 1016.8 |
| 20260504044408 | 45 | 246 | 0.0 | 0.0 | 0.00 | 0.00 | 0.00 | 76 | 1017.0 |
| 20260504043906 | 44 | 246 | 0.0 | 0.0 | 0.00 | 0.00 | 0.00 | 75 | 1017.1 |
| 20260504043402 | 44 | 246 | 0.0 | 0.0 | 0.00 | 0.00 | 0.00 | 76 | 1016.9 |
| 20260504042900 | 44 | 261 | 0.0 | 0.0 | 0.00 | 0.00 | 0.00 | 75 | 1017.1 |
| 20260504042356 | 44 | 243 | 0.0 | 0.0 | 0.00 | 0.00 | 0.00 | 75 | 1016.9 |
| 20260504041852 | 44 | 243 | 0.0 | 0.0 | 0.00 | 0.00 | 0.00 | 76 | 1016.8 |
| 20260504041348 | 44 | 238 | 0.0 | 0.0 | 0.00 | 0.00 | 0.00 | 75 | 1016.9 |
| 20260504040845 | 43 | 234 | 0.0 | 0.0 | 0.00 | 0.00 | 0.00 | 73 | 1017.1 |
| 20260504040342 | 43 | 251 | 0.0 | 0.0 | 0.00 | 0.00 | 0.00 | 75 | 1017.1 |
| 20260504035838 | 42 | 253 | 0.0 | 0.0 | 0.00 | 0.00 | 0.00 | 74 | 1016.9 |
| 20260504035337 | 42 | 261 | 0.0 | 0.0 | 0.00 | 0.00 | 0.00 | 76 | 1016.9 |
| 20260504034833 | 42 | 242 | 0.0 | 0.0 | 0.00 | 0.00 | 0.00 | 75 | 1017.1 |
| 20260504034330 | 42 | 242 | 0.0 | 0.0 | 0.00 | 0.00 | 0.00 | 73 | 1017.0 |
| 20260504033827 | 42 | 244 | 0.0 | 0.0 | 0.00 | 0.00 | 0.00 | 75 | 1017.0 |
| 20260504033325 | 42 | 244 | 0.0 | 0.0 | 0.00 | 0.00 | 0.00 | 73 | 1016.9 |
| 20260504032821 | 42 | 216 | 0.0 | 0.0 | 0.00 | 0.00 | 0.00 | 70 | 1017.0 |
| 20260504032319 | 42 | 222 | 0.0 | 0.0 | 0.00 | 0.00 | 0.00 | 71 | 1016.9 |
| 20260504031815 | 42 | 218 | 0.0 | 0.0 | 0.00 | 0.00 | 0.00 | 74 | 1017.0 |
| 20260504031313 | 42 | 218 | 0.0 | 0.0 | 0.00 | 0.00 | 0.00 | 73 | 1017.0 |
| 20260504030809 | 42 | 214 | 0.0 | 0.0 | 0.00 | 0.00 | 0.00 | 71 | 1017.2 |
| 20260504030306 | 43 | 215 | 0.0 | 0.0 | 0.00 | 0.00 | 0.00 | 69 | 1017.1 |
| 20260504025802 | 43 | 171 | 0.0 | 0.0 | 0.00 | 0.00 | 0.00 | 66 | 1017.1 |
| 20260504025259 | 43 | 222 | 0.0 | 0.0 | 0.00 | 0.00 | 0.00 | 68 | 1017.2 |
| 20260504024756 | 43 | 211 | 0.0 | 0.0 | 0.00 | 0.00 | 0.00 | 68 | 1017.2 |
| 20260504024252 | 44 | 169 | 0.0 | 0.0 | 0.00 | 0.00 | 0.00 | 68 | 1017.3 |
| 20260504023749 | 44 | 277 | 0.0 | 0.0 | 0.00 | 0.00 | 0.00 | 68 | 1017.3 |
| 20260504023246 | 44 | 213 | 0.0 | 0.0 | 0.00 | 0.00 | 0.00 | 66 | 1017.2 |
| 20260504022742 | 44 | 213 | 0.0 | 0.0 | 0.00 | 0.00 | 0.00 | 67 | 1017.2 |
| 20260504022238 | 44 | 201 | 0.0 | 0.0 | 0.00 | 0.00 | 0.00 | 67 | 1017.0 |
| 20260504021735 | 44 | 217 | 0.0 | 0.0 | 0.00 | 0.00 | 0.00 | 64 | 1017.1 |
| 20260504021232 | 45 | 236 | 0.0 | 0.0 | 0.00 | 0.00 | 0.00 | 66 | 1017.2 |
| 20260504020729 | 45 | 206 | 0.0 | 0.0 | 0.00 | 0.00 | 0.00 | 63 | 1017.2 |
| 20260504020226 | 45 | 176 | 0.0 | 0.0 | 0.00 | 0.00 | 0.00 | 63 | 1017.2 |
| 20260504015722 | 46 | 201 | 0.0 | 0.0 | 0.00 | 0.00 | 0.00 | 60 | 1017.0 |
| 20260504015219 | 46 | 250 | 0.0 | 0.0 | 0.00 | 0.00 | 0.00 | 63 | 1017.2 |
| 20260504014714 | 46 | 265 | 0.0 | 0.0 | 0.00 | 0.00 | 0.00 | 61 | 1017.1 |
| 20260504014211 | 46 | 250 | 0.0 | 0.0 | 0.00 | 0.00 | 0.00 | 62 | 1017.2 |
| 20260504013709 | 46 | 251 | 0.0 | 0.0 | 0.00 | 0.00 | 0.00 | 61 | 1017.0 |
| 20260504013206 | 47 | 301 | 0.0 | 0.0 | 0.00 | 0.00 | 0.00 | 60 | 1017.2 |
| 20260504012703 | 47 | 262 | 0.0 | 0.0 | 0.00 | 0.00 | 0.00 | 57 | 1017.0 |
| 20260504012201 | 48 | 258 | 1.0 | 2.0 | 0.00 | 0.00 | 0.00 | 59 | 1017.2 |
| 20260504011658 | 47 | 229 | 0.0 | 0.0 | 0.00 | 0.00 | 0.00 | 58 | 1017.1 |
| 20260504011154 | 47 | 243 | 0.0 | 0.0 | 0.00 | 0.00 | 0.00 | 60 | 1017.0 |
| 20260504010650 | 47 | 253 | 0.0 | 0.0 | 0.00 | 0.00 | 0.00 | 59 | 1017.1 |
| 20260504010145 | 47 | 259 | 1.0 | 2.0 | 0.00 | 0.00 | 0.00 | 60 | 1017.1 |
| 20260504005643 | 47 | 317 | 0.0 | 0.0 | 0.00 | 0.00 | 0.00 | 63 | 1017.1 |
| 20260504005139 | 47 | 239 | 0.0 | 0.0 | 0.00 | 0.00 | 0.00 | 59 | 1017.0 |
| 20260504004638 | 48 | 253 | 0.0 | 0.0 | 0.00 | 0.00 | 0.00 | 60 | 1016.9 |
| 20260504004134 | 48 | 232 | 0.0 | 0.0 | 0.00 | 0.00 | 0.00 | 58 | 1017.1 |
| 20260504003631 | 49 | 249 | 0.0 | 0.0 | 0.00 | 0.00 | 0.00 | 59 | 1017.0 |
| 20260504003127 | 50 | 274 | 0.0 | 0.0 | 0.00 | 0.00 | 0.00 | 56 | 1017.0 |
| 20260504002624 | 49 | 243 | 0.0 | 1.0 | 0.00 | 0.00 | 0.00 | 51 | 1016.9 |
| 20260504002122 | 50 | 247 | 0.0 | 0.0 | 0.00 | 0.00 | 0.00 | 57 | 1016.8 |
| 20260504001620 | 51 | 267 | 0.0 | 0.0 | 0.00 | 0.00 | 0.00 | 50 | 1016.8 |
| 20260504001115 | 52 | 241 | 1.0 | 2.0 | 0.00 | 0.00 | 0.00 | 51 | 1016.6 |
| 20260504000613 | 52 | 214 | 0.0 | 2.0 | 0.00 | 0.00 | 0.00 | 44 | 1016.8 |
| 20260504000110 | 53 | 326 | 0.0 | 0.0 | 0.00 | 0.00 | 0.00 | 52 | 1016.9 |
| 20260503235608 | 54 | 230 | 0.0 | 1.0 | 0.00 | 0.00 | 0.00 | 40 | 1016.8 |
| 20260503235105 | 54 | 224 | 0.0 | 1.0 | 0.00 | 0.00 | 0.00 | 40 | 1016.8 |
| 20260503234603 | 55 | 306 | 1.0 | 1.0 | 0.00 | 0.00 | 0.00 | 39 | 1016.8 |
| 20260503234100 | 55 | 225 | 1.0 | 2.0 | 0.00 | 0.00 | 0.00 | 40 | 1016.9 |
| 20260503233557 | 55 | 264 | 0.0 | 0.0 | 0.00 | 0.00 | 0.00 | 42 | 1016.9 |
| 20260503233053 | 55 | 277 | 0.0 | 2.0 | 0.00 | 0.00 | 0.00 | 40 | 1016.8 |
| 20260503232550 | 56 | 258 | 0.0 | 0.0 | 0.00 | 0.00 | 0.00 | 41 | 1017.0 |
| 20260503232047 | 56 | 81 | 2.0 | 3.0 | 0.00 | 0.00 | 0.00 | 41 | 1016.6 |
| 20260503231545 | 57 | 324 | 2.0 | 3.0 | 0.00 | 0.00 | 0.00 | 39 | 1016.9 |
| 20260503231041 | 57 | 296 | 4.0 | 6.0 | 0.00 | 0.00 | 0.00 | 39 | 1016.6 |
| 20260503230538 | 58 | 322 | 5.0 | 7.0 | 0.00 | 0.00 | 0.00 | 35 | 1016.6 |
| 20260503230036 | 58 | 305 | 4.0 | 6.0 | 0.00 | 0.00 | 0.00 | 37 | 1016.9 |
| 20260503225532 | 58 | 277 | 1.0 | 4.0 | 0.00 | 0.00 | 0.00 | 36 | 1016.8 |
| 20260503225027 | 58 | 249 | 3.0 | 6.0 | 0.00 | 0.00 | 0.00 | 37 | 1016.6 |
| 20260503224525 | 59 | 287 | 0.0 | 3.0 | 0.00 | 0.00 | 0.00 | 35 | 1016.9 |
| 20260503224023 | 59 | 233 | 1.0 | 8.0 | 0.00 | 0.00 | 0.00 | 34 | 1016.8 |
| 20260503223520 | 58 | 283 | 0.0 | 6.0 | 0.00 | 0.00 | 0.00 | 35 | 1016.8 |
| 20260503223016 | 59 | 303 | 7.0 | 10.0 | 0.00 | 0.00 | 0.00 | 33 | 1017.0 |
| 20260503222514 | 59 | 353 | 4.0 | 8.0 | 0.00 | 0.00 | 0.00 | 35 | 1017.0 |
| 20260503222012 | 60 | 320 | 2.0 | 7.0 | 0.00 | 0.00 | 0.00 | 36 | 1017.0 |
| 20260503221510 | 60 | 291 | 3.0 | 7.0 | 0.00 | 0.00 | 0.00 | 33 | 1017.1 |
| 20260503221007 | 59 | 315 | 3.0 | 10.0 | 0.00 | 0.00 | 0.00 | 35 | 1017.1 |
| 20260503220503 | 60 | 300 | 2.0 | 3.0 | 0.00 | 0.00 | 0.00 | 38 | 1017.0 |
| 20260503220000 | 60 | 352 | 4.0 | 7.0 | 0.00 | 0.00 | 0.00 | 34 | 1017.1 |
| 20260503215457 | 59 | 320 | 1.0 | 4.0 | 0.00 | 0.00 | 0.00 | 37 | 1017.0 |
| 20260503214954 | 59 | 311 | 7.0 | 10.0 | 0.00 | 0.00 | 0.00 | 34 | 1017.1 |
| 20260503214452 | 60 | 312 | 8.0 | 9.0 | 0.00 | 0.00 | 0.00 | 37 | 1017.0 |
| 20260503213949 | 59 | 326 | 7.0 | 9.0 | 0.00 | 0.00 | 0.00 | 37 | 1017.0 |
| 20260503213448 | 61 | 327 | 4.0 | 4.0 | 0.00 | 0.00 | 0.00 | 35 | 1016.6 |
| 20260503212943 | 60 | 342 | 5.0 | 7.0 | 0.00 | 0.00 | 0.00 | 35 | 1016.5 |
| 20260503212441 | 60 | 264 | 6.0 | 11.0 | 0.00 | 0.00 | 0.00 | 34 | 1016.6 |
| 20260503211938 | 59 | 353 | 3.0 | 4.0 | 0.00 | 0.00 | 0.00 | 36 | 1016.9 |
| 20260503211435 | 58 | 350 | 4.0 | 10.0 | 0.00 | 0.00 | 0.00 | 36 | 1017.0 |
| 20260503210931 | 59 | 316 | 5.0 | 10.0 | 0.00 | 0.00 | 0.00 | 36 | 1016.8 |
| 20260503210428 | 60 | 322 | 10.0 | 16.0 | 0.00 | 0.00 | 0.00 | 37 | 1016.8 |
| 20260503205928 | 60 | 320 | 2.0 | 7.0 | 0.00 | 0.00 | 0.00 | 37 | 1017.1 |
| 20260503205425 | 57 | 305 | 3.0 | 4.0 | 0.00 | 0.00 | 0.00 | 37 | 1017.2 |
| 20260503204921 | 57 | 321 | 5.0 | 10.0 | 0.00 | 0.00 | 0.00 | 39 | 1017.1 |
| 20260503204418 | 59 | 313 | 5.0 | 11.0 | 0.00 | 0.00 | 0.00 | 39 | 1017.2 |
| 20260503203915 | 60 | 334 | 8.0 | 16.0 | 0.00 | 0.00 | 0.00 | 39 | 1017.1 |
| 20260503203413 | 60 | 313 | 6.0 | 9.0 | 0.00 | 0.00 | 0.00 | 36 | 1017.0 |
| 20260503202909 | 58 | 286 | 1.0 | 6.0 | 0.00 | 0.00 | 0.00 | 37 | 1017.2 |
| 20260503202408 | 58 | 308 | 6.0 | 7.0 | 0.00 | 0.00 | 0.00 | 40 | 1017.4 |
| 20260503201906 | 58 | 288 | 2.0 | 4.0 | 0.00 | 0.00 | 0.00 | 37 | 1017.5 |
| 20260503201403 | 59 | 318 | 7.0 | 11.0 | 0.00 | 0.00 | 0.00 | 37 | 1017.3 |
| 20260503200900 | 59 | 320 | 7.0 | 14.0 | 0.00 | 0.00 | 0.00 | 35 | 1017.4 |
| 20260503200356 | 60 | 322 | 6.0 | 10.0 | 0.00 | 0.00 | 0.00 | 35 | 1017.4 |
| 20260503195853 | 59 | 27 | 0.0 | 2.0 | 0.00 | 0.00 | 0.00 | 36 | 1017.4 |
| 20260503195349 | 59 | 275 | 7.0 | 10.0 | 0.00 | 0.00 | 0.00 | 36 | 1017.9 |
| 20260503194847 | 59 | 303 | 6.0 | 11.0 | 0.00 | 0.00 | 0.00 | 39 | 1018.0 |
| 20260503194343 | 58 | 315 | 5.0 | 7.0 | 0.00 | 0.00 | 0.00 | 37 | 1018.1 |
| 20260503193839 | 58 | 328 | 8.0 | 13.0 | 0.00 | 0.00 | 0.00 | 38 | 1017.9 |
| 20260503193335 | 57 | 309 | 2.0 | 6.0 | 0.00 | 0.00 | 0.00 | 37 | 1018.1 |
| 20260503192831 | 57 | 327 | 5.0 | 8.0 | 0.00 | 0.00 | 0.00 | 39 | 1018.3 |
| 20260503192327 | 58 | 312 | 10.0 | 13.0 | 0.00 | 0.00 | 0.00 | 36 | 1018.4 |
| 20260503191823 | 57 | 313 | 3.0 | 10.0 | 0.00 | 0.00 | 0.00 | 38 | 1018.5 |
| 20260503191320 | 57 | 192 | 8.0 | 11.0 | 0.00 | 0.00 | 0.00 | 36 | 1018.2 |
| 20260503190817 | 57 | 333 | 9.0 | 17.0 | 0.00 | 0.00 | 0.00 | 38 | 1018.5 |
| 20260503190314 | 56 | 309 | 3.0 | 6.0 | 0.00 | 0.00 | 0.00 | 36 | 1018.6 |
| 20260503185811 | 56 | 288 | 2.0 | 14.0 | 0.00 | 0.00 | 0.00 | 36 | 1018.6 |
| 20260503185307 | 56 | 241 | 2.0 | 7.0 | 0.00 | 0.00 | 0.00 | 35 | 1018.5 |
| 20260503184802 | 58 | 322 | 11.0 | 18.0 | 0.00 | 0.00 | 0.00 | 35 | 1018.6 |
| 20260503184258 | 57 | 303 | 5.0 | 11.0 | 0.00 | 0.00 | 0.00 | 38 | 1018.9 |
| 20260503183754 | 56 | 274 | 6.0 | 8.0 | 0.00 | 0.00 | 0.00 | 36 | 1018.7 |
| 20260503183252 | 56 | 333 | 2.0 | 9.0 | 0.00 | 0.00 | 0.00 | 36 | 1018.6 |
| 20260503182749 | 56 | 313 | 3.0 | 15.0 | 0.00 | 0.00 | 0.00 | 36 | 1019.0 |
| 20260503182248 | 57 | 221 | 5.0 | 7.0 | 0.00 | 0.00 | 0.00 | 38 | 1018.8 |
| 20260503181745 | 56 | 289 | 4.0 | 13.0 | 0.00 | 0.00 | 0.00 | 37 | 1019.0 |
| 20260503181242 | 56 | 340 | 3.0 | 9.0 | 0.00 | 0.00 | 0.00 | 38 | 1019.1 |
| 20260503180738 | 55 | 93 | 3.0 | 4.0 | 0.00 | 0.00 | 0.00 | 38 | 1019.0 |
| 20260503180236 | 56 | 82 | 1.0 | 4.0 | 0.00 | 0.00 | 0.00 | 36 | 1019.1 |
| 20260503175732 | 55 | 98 | 2.0 | 9.0 | 0.00 | 0.00 | 0.00 | 40 | 1019.2 |
| 20260503175230 | 55 | 307 | 1.0 | 4.0 | 0.00 | 0.00 | 0.00 | 42 | 1019.2 |
| 20260503174726 | 55 | 279 | 5.0 | 9.0 | 0.00 | 0.00 | 0.00 | 39 | 1019.2 |
| 20260503174224 | 55 | 286 | 4.0 | 11.0 | 0.00 | 0.00 | 0.00 | 40 | 1019.3 |
| 20260503173719 | 56 | 287 | 8.0 | 10.0 | 0.00 | 0.00 | 0.00 | 40 | 1019.4 |
| 20260503173215 | 56 | 287 | 3.0 | 6.0 | 0.00 | 0.00 | 0.00 | 39 | 1019.6 |
| 20260503172712 | 54 | 27 | 3.0 | 3.0 | 0.00 | 0.00 | 0.00 | 36 | 1019.6 |
| 20260503172209 | 55 | 55 | 5.0 | 9.0 | 0.00 | 0.00 | 0.00 | 42 | 1019.8 |
| 20260503171705 | 54 | 307 | 5.0 | 10.0 | 0.00 | 0.00 | 0.00 | 42 | 1019.8 |
| 20260503171203 | 54 | 309 | 4.0 | 11.0 | 0.00 | 0.00 | 0.00 | 43 | 1019.7 |
| 20260503170700 | 54 | 264 | 6.0 | 10.0 | 0.00 | 0.00 | 0.00 | 36 | 1019.7 |
| 20260503170157 | 54 | 297 | 8.0 | 11.0 | 0.00 | 0.00 | 0.00 | 36 | 1020.1 |
| 20260503160124 | 52 | 282 | 4.0 | 4.0 | 0.00 | 0.00 | 0.00 | 43 | 1020.6 |
| 20260503150553 | 49 | 77 | 1.0 | 10.0 | 0.00 | 0.00 | 0.00 | 47 | 1020.3 |
| 20260503130943 | 42 | 237 | 6.0 | 8.0 | 0.00 | 0.00 | 0.00 | 64 | 1020.6 |
| 20260503130441 | 42 | 2 | 3.0 | 7.0 | 0.00 | 0.00 | 0.00 | 65 | 1020.8 |
| 20260503110332 | 35 | 230 | 0.0 | 0.0 | 0.00 | 0.00 | 0.00 | 83 | 1020.2 |
| 20260503100258 | 35 | 286 | 0.0 | 0.0 | 0.00 | 0.00 | 0.00 | 82 | 1019.8 |
| 20260503090218 | 34 | 232 | 0.0 | 0.0 | 0.00 | 0.00 | 0.00 | 87 | 1019.7 |
| 20260503081150 | 35 | 250 | 0.0 | 0.0 | 0.00 | 0.00 | 0.00 | 82 | 1019.3 |
| 20260503080646 | 35 | 243 | 1.0 | 2.0 | 0.00 | 0.00 | 0.00 | 84 | 1019.4 |
| 20260503080144 | 34 | 218 | 0.0 | 0.0 | 0.00 | 0.00 | 0.00 | 85 | 1019.4 |
| 20260503072621 | 35 | 244 | 0.0 | 0.0 | 0.00 | 0.00 | 0.00 | 83 | 1019.1 |
| 20260503072118 | 35 | 253 | 0.0 | 1.0 | 0.00 | 0.00 | 0.00 | 82 | 1018.9 |
| 20260503071614 | 36 | 274 | 0.0 | 0.0 | 0.00 | 0.00 | 0.00 | 81 | 1019.0 |
| 20260503071111 | 35 | 249 | 1.0 | 2.0 | 0.00 | 0.00 | 0.00 | 82 | 1018.9 |